Location: �quirre
(50.4736°N, 2.2351°E)
Time: 22:13:37
(UTC+00:00)

Cosmos 783 Rocket - Pass Details

Date: 07 August 2020
Orbit: 757 x 781 km, 74.1° (Epoch: 23 September)

Event Time Altitude Azimuth Distance (km) Brightness Sun altitude
Rises 00:46:55 0° 333° (NNW) 3,237 8.5 -22.3°
Reaches altitude 10° 00:49:18 10° 331° (NNW) 2,310 7.6 -22.2°
Maximum altitude 00:54:29 65° 251° (WSW) 845 4.5 -22.0°
Enters shadow 00:55:31 53° 199° (SSW) 947 4.5 -22.0°
